Date,TemperatureHighF,TemperatureAvgF,TemperatureLowF,DewpointHighF,DewpointAvgF,DewpointLowF,HumidityHigh,HumidityAvg,HumidityLow,PressureMaxIn,PressureMinIn,WindSpeedMaxMPH,WindSpeedAvgMPH,GustSpeedMaxMPH,PrecipitationSumIn
2012-1-17,64.8,61.6,58.6,57.9,57.1,55.9,92,85,78,30.21,30.18,1,0,2,0.00
2012-1-18,80.4,68.0,57.7,64.8,60.5,56.1,97,79,48,30.18,29.99,8,0,8,0.01
2012-1-19,73.8,66.0,55.4,60.6,56.3,50.9,92,73,48,30.16,30.01,12,1,12,0.00
2012-1-20,78.1,65.3,52.0,58.6,54.2,50.7,98,70,44,30.22,30.13,6,0,9,0.00
2012-1-21,77.4,70.6,64.4,61.9,58.7,55.0,87,67,53,30.18,30.06,15,1,15,0.00
2012-1-22,81.9,69.2,55.9,66.7,60.2,54.9,97,75,45,30.15,30.07,7,0,7,0.00
2012-1-23,80.1,73.7,69.1,66.4,65.0,62.6,88,75,58,30.15,30.09,11,1,13,0.00
2012-1-24,80.8,73.5,65.7,70.2,65.9,63.1,94,78,61,30.19,30.10,10,1,10,0.01
2012-1-25,80.4,73.6,66.9,68.7,66.1,63.1,94,78,66,30.20,30.10,8,1,9,0.08
2012-1-26,80.4,74.6,71.4,68.7,66.4,63.0,82,76,64,30.14,30.01,15,2,15,0.00
2012-1-27,82.6,75.7,68.5,71.8,68.0,64.9,89,77,59,30.08,29.96,14,2,16,0.00
2012-1-28,81.1,71.9,64.6,68.7,65.7,63.1,97,82,60,30.17,30.06,7,0,8,0.00
2012-1-29,74.7,69.5,67.6,65.5,61.9,57.9,84,77,65,30.26,30.13,10,1,11,0.00
2012-1-30,77.2,71.5,68.9,61.0,58.4,56.5,70,64,53,30.32,30.21,14,2,14,0.00
2012-1-31,77.4,71.5,68.2,63.1,60.0,56.1,76,67,57,30.33,30.24,11,1,11,0.00
2012-2-1,80.8,74.0,69.4,67.6,64.3,61.7,90,72,59,30.26,30.15,9,1,9,0.01
2012-2-2,72.1,69.1,66.6,69.3,67.0,64.2,98,93,86,30.18,30.09,10,1,10,0.27
2012-2-3,77.7,72.3,66.6,68.0,65.7,62.6,98,80,70,30.22,30.12,11,2,15,0.05
2012-2-4,76.8,72.8,70.9,69.4,66.5,63.5,90,81,73,30.18,30.07,11,2,14,0.06
2012-2-5,80.8,74.7,71.4,70.0,68.0,66.0,87,80,66,30.08,29.99,10,1,10,0.00
2012-2-6,77.2,71.9,67.6,72.0,68.7,66.4,98,90,79,30.08,29.99,10,1,11,1.55
2012-2-7,79.5,73.5,69.3,73.4,70.1,68.0,98,89,78,30.04,29.94,9,1,11,0.52
2012-2-8,77.5,69.8,67.3,69.1,66.6,63.1,98,90,73,30.06,29.98,5,1,10,0.01
2012-2-9,77.5,71.2,67.1,68.0,65.6,62.2,92,83,70,30.11,30.01,16,2,16,0.03
2012-2-10,79.3,73.2,69.8,73.4,69.6,66.6,96,89,79,30.07,29.90,13,2,16,0.61
2012-2-11,71.1,66.0,54.3,67.5,59.3,45.7,98,80,56,30.09,29.88,17,2,17,0.29
2012-2-12,60.3,52.1,45.9,46.0,40.5,32.0,82,65,49,30.27,30.08,14,3,17,0.00
2012-2-13,71.8,59.3,46.2,55.0,46.9,42.4,90,66,43,30.24,30.14,9,1,9,0.00
2012-2-14,76.8,68.0,54.5,60.8,57.0,52.5,95,69,53,30.16,30.08,11,1,12,0.00
2012-2-15,81.3,72.0,60.4,64.9,62.2,58.6,96,73,52,30.22,30.12,11,1,11,0.00
2012-2-16,79.7,74.0,69.6,66.7,64.9,63.3,85,74,61,30.21,30.09,14,2,15,0.00
2012-2-17,82.8,72.2,64.0,68.7,65.6,62.8,99,81,59,30.11,30.00,12,1,12,0.00
2012-2-18,82.6,73.2,63.3,68.7,66.0,62.2,98,79,57,30.04,29.91,14,2,14,0.00
2012-2-19,87.1,76.5,68.5,71.6,68.4,64.2,95,77,52,29.97,29.84,18,3,21,0.00
2012-2-20,73.9,67.0,59.4,64.6,57.7,53.4,88,73,53,30.17,29.94,13,2,13,0.00
2012-2-21,79.0,70.6,64.6,59.5,56.8,53.8,74,62,48,30.23,30.14,8,1,8,0.00
2012-2-22,79.9,70.8,60.1,65.1,61.9,57.6,94,74,57,30.15,29.96,14,2,14,0.00
2012-2-23,87.3,72.5,60.4,71.2,65.0,59.5,98,80,44,30.02,29.92,11,1,14,0.00
2012-2-24,82.9,73.8,62.4,72.9,68.8,61.3,99,85,66,30.06,29.97,17,2,17,0.00
2012-2-25,81.3,71.7,67.5,72.7,66.3,62.6,99,84,68,30.20,30.02,21,2,21,0.00
2012-2-26,75.0,72.0,69.1,67.8,65.6,62.8,84,80,75,30.27,30.18,11,2,11,0.00
2012-2-27,82.9,76.2,72.3,71.4,69.1,67.3,90,79,65,30.29,30.21,12,1,13,0.00
2012-2-28,83.5,76.7,72.0,71.4,69.0,67.1,89,78,62,30.27,30.19,8,1,8,0.00
2012-2-29,83.7,76.3,72.0,71.6,68.9,67.5,88,78,65,30.23,30.12,12,2,12,0.02
2012-3-1,82.8,75.9,68.5,71.1,69.0,66.4,94,80,65,30.14,30.02,14,2,15,0.00
2012-3-2,81.0,68.5,64.6,71.4,65.9,64.0,99,92,64,30.07,30.01,14,1,14,0.00
2012-3-6,77.4,76.3,74.8,61.0,60.3,59.2,62,58,55,30.32,30.32,15,3,15,0.00
2012-3-11,72.7,72.3,71.8,64.8,64.1,63.1,76,75,74,30.26,30.24,5,2,11,0.00
2012-3-12,80.4,74.1,70.0,64.6,61.6,57.7,77,66,48,30.30,30.19,10,2,11,0.00
2012-3-13,81.9,73.9,68.2,62.6,60.5,58.6,76,64,47,30.25,30.17,12,1,12,0.00
2012-3-14,81.1,74.0,69.1,66.2,63.0,60.6,81,69,56,30.22,30.12,11,2,13,0.00
2012-3-15,82.4,74.8,70.3,69.3,66.2,62.8,84,75,58,30.22,30.12,14,2,14,0.00
2012-3-16,82.9,75.5,71.1,65.8,64.3,61.9,81,69,53,30.23,30.13,9,1,9,0.00
2012-3-17,81.9,74.0,64.4,64.8,62.4,60.4,89,68,51,30.23,30.14,9,1,10,0.00
2012-3-18,83.7,74.6,68.7,68.5,64.0,59.7,85,70,54,30.23,30.14,10,1,13,0.01
2012-3-19,84.0,75.1,69.6,68.5,63.6,59.5,83,68,54,30.19,30.08,7,0,8,0.03
2012-3-20,83.5,75.9,71.4,69.4,63.7,59.9,71,66,60,30.12,30.03,0,0,0,0.00
2012-3-21,86.4,78.0,73.2,72.9,66.4,62.2,73,68,61,30.16,30.05,0,0,0,0.00
2012-3-22,87.3,78.6,73.2,73.4,66.8,63.0,73,68,58,30.18,30.09,0,0,0,0.00
2012-3-23,86.7,77.9,72.1,72.1,65.4,60.6,70,66,54,30.14,30.04,0,0,0,0.00
2012-4-23,81.7,74.5,61.9,55.4,51.1,46.8,67,45,34,29.93,29.77,20,4,23,0.04
2012-4-24,79.0,64.7,53.1,51.6,44.8,34.3,86,53,21,30.05,29.91,13,1,13,0.00
2012-4-25,82.2,67.8,51.4,58.5,51.5,44.8,90,58,40,30.13,30.04,12,1,12,0.00
2012-4-26,83.7,72.2,58.3,63.0,60.0,55.0,96,67,47,30.16,30.07,10,1,10,0.00
2012-4-27,85.5,75.4,64.2,69.8,64.7,59.0,93,71,53,30.14,30.06,8,0,9,0.00
2012-4-28,81.1,74.4,69.3,73.4,69.8,65.3,98,86,64,30.10,30.04,9,0,9,0.83
2012-4-29,75.7,72.6,69.6,71.8,69.5,64.8,97,90,69,30.09,30.01,14,1,14,0.64
2012-4-30,74.7,72.4,69.6,72.0,69.4,67.1,96,90,82,30.07,30.00,13,2,15,0.38
2012-5-1,83.5,75.7,72.0,73.4,70.7,68.7,96,85,71,30.09,30.01,11,1,11,0.57
2012-5-2,85.8,77.8,74.3,74.1,70.8,68.7,87,79,64,30.11,30.01,11,1,12,0.02
2012-5-3,87.3,78.7,73.0,72.9,70.1,67.8,88,76,59,30.11,30.04,12,1,12,0.02
2012-5-4,86.2,78.4,72.7,70.9,68.5,66.7,84,72,55,30.11,30.02,9,0,9,0.00
2012-5-5,86.7,78.9,73.2,71.2,69.2,67.1,85,73,56,30.04,29.95,11,1,11,0.00
2012-5-6,89.1,78.2,69.3,73.6,70.1,67.6,97,77,56,30.00,29.89,13,1,14,0.00
2012-5-7,86.4,78.3,71.2,73.0,70.4,68.5,95,78,60,29.94,29.86,13,2,13,0.02
2012-5-8,86.2,74.9,68.2,73.0,69.4,66.9,99,84,62,29.93,29.87,13,1,14,0.10
2012-5-9,86.4,75.4,68.7,76.1,70.4,67.1,97,85,59,29.92,29.81,15,1,17,0.07
2012-5-10,95.7,78.4,71.2,73.6,71.7,68.5,95,82,43,29.91,29.79,12,1,13,0.36
2012-5-11,88.0,78.0,69.1,74.8,71.5,68.2,99,82,62,30.10,29.89,10,1,10,0.03
2012-5-12,86.4,79.7,75.6,71.6,69.5,66.9,83,72,57,30.18,30.06,11,1,11,0.00
2012-5-13,87.1,79.0,74.1,72.3,70.1,67.3,86,75,59,30.13,30.02,10,1,10,0.03
2012-5-14,87.3,78.2,72.0,76.3,72.6,69.3,95,83,66,30.06,29.95,8,0,8,0.13
2012-5-15,87.1,77.5,72.0,77.0,73.3,69.6,99,88,69,30.03,29.94,13,1,13,0.27
2012-5-16,83.1,75.9,69.4,75.2,71.5,68.7,99,87,65,30.03,29.92,6,0,7,0.00
2012-5-17,81.9,76.1,68.0,74.3,71.1,64.9,99,85,69,29.99,29.87,12,1,12,0.69
2012-5-18,89.1,75.2,68.5,73.9,69.4,64.9,99,83,51,29.96,29.86,19,1,22,0.81
2012-5-19,86.4,73.7,67.6,75.2,70.3,66.7,99,90,66,29.99,29.89,10,0,13,0.06
2012-5-20,89.2,78.1,69.1,75.2,71.1,68.5,99,81,60,29.98,29.90,8,0,8,0.00
2012-5-21,88.5,79.5,69.8,74.8,71.2,67.6,95,77,58,29.99,29.92,9,0,11,0.02
2012-5-22,82.9,75.4,71.8,73.8,71.5,69.4,96,88,68,29.99,29.91,11,1,13,1.08
2012-5-23,87.6,78.8,73.8,76.1,72.7,69.6,92,82,67,29.94,29.86,15,2,15,0.00
2012-5-24,81.9,74.6,70.2,76.8,71.6,68.5,97,91,77,29.91,29.83,12,0,12,0.86
2012-5-25,88.5,78.7,69.1,76.6,72.8,68.2,99,83,61,30.03,29.88,10,0,10,0.00
2012-5-26,88.5,79.4,72.9,77.2,74.0,71.4,99,85,65,30.04,29.96,8,1,8,0.08
2012-5-27,90.3,78.0,71.4,76.1,72.4,68.0,98,85,49,29.98,29.85,20,1,20,0.46
2012-5-28,88.5,78.6,71.4,77.5,73.5,69.4,97,85,68,29.99,29.89,17,2,17,0.11
2012-5-29,88.7,79.5,72.0,78.3,73.9,69.8,99,84,67,29.99,29.89,16,2,16,0.01
2012-5-30,95.4,80.8,70.5,76.8,72.8,66.0,99,78,42,29.96,29.83,14,2,15,0.00
2012-5-31,88.5,79.5,74.3,75.7,73.5,69.4,94,82,55,29.96,29.87,12,1,12,0.02
2012-6-1,83.5,76.3,71.8,76.8,73.9,70.9,98,92,78,30.00,29.88,12,1,12,0.66
2012-6-2,91.8,80.3,74.7,77.9,74.5,71.4,97,84,57,29.99,29.89,12,1,12,0.41
2012-6-3,93.0,80.5,72.3,75.2,70.9,66.2,97,75,44,30.04,29.94,9,1,10,0.00
2012-6-4,95.0,83.5,71.4,77.7,72.0,68.9,97,71,45,30.01,29.87,15,2,15,0.00
2012-6-5,91.9,81.1,76.3,78.1,74.5,69.4,95,81,57,29.91,29.82,13,1,14,0.00
2012-6-6,87.6,80.8,75.0,77.9,74.4,64.9,95,82,53,29.97,29.88,14,1,14,0.00
2012-6-7,91.8,84.6,80.1,79.5,75.9,70.3,92,76,52,29.98,29.91,12,1,12,0.00
2012-6-8,89.4,79.9,72.5,78.6,75.0,69.8,97,85,66,29.99,29.91,12,0,12,0.84
2012-6-9,91.4,80.2,73.9,80.1,75.6,73.0,99,87,63,30.04,29.93,6,0,8,0.04
2012-6-10,91.9,83.4,76.5,79.5,76.5,73.8,98,81,64,30.13,29.99,8,0,9,0.00
2012-6-11,89.8,82.7,77.2,75.0,72.0,68.2,86,71,52,30.12,30.04,8,0,8,0.00
2012-6-12,89.4,80.9,74.8,70.7,68.4,66.9,80,67,50,30.09,29.97,8,0,8,0.00
2012-6-13,91.0,80.7,69.8,73.9,70.7,68.4,99,73,52,30.00,29.89,7,1,11,0.00
2012-6-14,93.0,81.6,71.1,79.2,74.1,69.6,98,80,54,29.99,29.89,14,1,14,0.03
2012-6-15,91.6,80.3,72.9,79.7,73.9,68.9,96,82,61,30.03,29.91,10,1,10,0.13
2012-6-16,88.5,81.8,75.7,74.3,70.8,66.7,85,70,58,30.03,29.94,11,2,12,0.00
2012-6-17,89.1,81.2,75.9,71.1,67.7,63.1,76,64,52,30.04,29.94,10,1,10,0.00
2012-6-18,89.1,81.5,76.5,70.5,68.1,65.1,78,65,50,30.04,29.94,14,1,14,0.00
2012-6-19,87.1,80.3,76.8,74.5,71.3,66.9,87,74,61,30.04,29.97,15,2,16,0.06
2012-6-20,82.6,76.8,73.2,75.2,73.6,70.7,97,90,73,30.03,29.94,16,2,17,1.44
2012-6-21,88.3,80.4,73.2,77.0,74.4,72.0,97,83,68,30.00,29.88,12,1,12,0.11
2012-6-22,84.7,78.7,73.6,76.8,74.6,72.1,96,87,74,29.96,29.84,15,1,15,0.49
2012-6-23,84.7,77.9,72.3,77.4,74.5,70.9,98,90,77,30.02,29.86,12,1,14,0.41
2012-6-24,82.0,77.5,73.4,78.8,75.5,70.5,99,94,88,30.00,29.86,17,2,18,2.70
2012-6-25,91.2,83.1,81.1,78.4,76.9,73.2,88,82,57,29.87,29.77,20,5,20,0.00
2012-6-26,92.8,84.0,76.3,77.5,74.0,70.5,94,73,53,29.79,29.71,25,5,25,0.20
2012-6-27,92.5,84.2,77.2,79.2,75.8,72.3,89,77,57,30.00,29.76,20,4,20,0.22
2012-6-28,88.5,80.8,72.9,76.3,72.3,68.5,90,76,63,30.07,29.99,9,1,10,0.00
2012-6-29,90.9,81.8,71.1,75.4,72.1,69.3,97,74,54,30.06,29.95,9,1,11,0.00
2012-6-30,91.2,83.6,75.7,78.1,74.5,67.6,94,75,51,30.01,29.93,11,1,11,0.00
2012-7-1,90.9,83.7,76.8,78.6,74.9,71.6,93,76,57,30.09,29.98,13,1,13,0.00
2012-7-2,91.6,82.4,74.5,77.5,75.0,70.5,98,80,55,30.12,30.00,14,1,14,0.00
2012-7-3,91.6,83.2,74.7,78.4,75.5,73.0,97,79,60,30.08,30.00,11,1,11,0.00
2012-7-4,91.8,83.8,76.5,78.8,76.1,74.3,95,78,61,30.10,30.01,9,1,10,0.00
2012-7-5,91.8,82.1,74.7,79.3,75.0,72.0,95,80,55,30.07,29.99,10,1,11,0.12
2012-7-6,91.0,83.5,74.8,77.7,75.3,73.0,98,77,62,30.06,30.01,10,1,10,0.08
2012-7-7,91.6,84.5,78.3,78.3,75.8,73.0,90,76,57,30.09,30.03,10,1,10,0.00
2012-7-8,91.4,83.9,77.0,79.3,76.1,73.6,96,78,62,30.09,30.02,10,1,10,0.00
2012-7-9,90.1,82.6,75.6,78.3,75.3,72.1,96,79,63,30.06,29.97,11,0,11,0.00
2012-7-10,90.9,83.1,74.5,78.8,75.9,71.2,97,80,65,30.05,29.96,13,1,14,0.22
2012-7-11,83.8,76.7,72.7,75.0,73.2,71.8,98,89,69,30.09,29.96,12,0,13,1.66
2012-7-12,89.2,80.1,74.3,76.5,73.5,69.1,97,81,61,30.04,29.96,13,1,13,0.00
2012-7-13,89.1,82.1,75.0,77.9,74.7,73.0,95,79,63,30.06,29.99,11,1,11,0.23
2012-7-14,89.8,82.6,77.9,78.1,74.5,71.6,90,77,61,30.09,29.99,12,1,13,0.17
2012-7-15,88.5,80.0,72.7,75.2,73.2,69.6,97,81,55,30.13,30.03,13,2,13,0.74
2012-7-16,87.6,76.1,72.0,76.6,73.5,70.5,99,92,68,30.12,30.00,7,0,9,1.27
2012-7-17,89.1,77.4,72.0,77.5,73.6,70.7,98,89,63,30.06,29.97,11,1,11,1.27
2012-7-18,93.6,81.2,71.4,79.2,75.1,70.5,99,83,51,30.14,30.01,14,1,14,0.00
2012-7-19,90.7,83.8,76.5,78.1,76.4,74.1,98,80,62,30.19,30.11,11,1,11,0.00
2012-7-20,91.6,84.7,79.0,79.3,76.7,74.5,88,78,65,30.15,30.05,12,1,12,0.00
2012-7-21,91.8,85.3,81.1,80.4,77.6,75.4,87,78,67,30.11,30.04,9,1,10,0.00
2012-7-22,89.2,79.8,72.3,79.5,75.7,70.9,98,88,72,30.15,30.04,15,1,15,1.64
2012-7-23,88.5,80.5,72.7,78.3,75.5,70.5,98,86,66,30.18,30.10,10,1,10,0.56
2012-7-24,90.9,83.4,75.6,80.4,77.1,65.3,92,82,64,30.15,30.03,16,2,16,0.00
2012-7-25,92.8,83.3,75.4,79.0,75.7,72.9,97,79,57,30.07,29.99,11,1,13,0.00
2012-7-26,91.4,83.6,74.7,78.8,75.6,72.9,96,78,61,30.06,29.99,9,1,11,0.00
2012-7-27,91.8,84.2,76.3,78.4,75.9,74.1,95,77,61,30.11,30.00,10,1,10,0.00
2012-7-28,91.8,83.2,73.9,78.8,74.9,70.3,98,77,57,30.12,30.04,10,1,10,0.00
2012-7-29,91.9,83.5,73.0,77.0,74.2,71.8,98,75,57,30.10,30.01,10,1,10,0.00
2012-7-30,92.5,83.0,74.7,77.7,73.9,68.7,95,75,55,30.07,29.98,11,1,11,0.00
2012-7-31,91.9,82.8,73.0,77.4,73.5,70.0,94,75,53,30.06,29.97,13,1,14,0.00
2012-8-1,92.1,82.4,73.4,78.4,74.5,66.7,95,79,55,30.03,29.94,12,1,13,0.01
2012-8-2,93.6,84.3,75.4,79.3,76.6,74.1,98,79,57,30.01,29.93,11,1,11,0.00
2012-8-3,91.8,81.6,74.8,79.0,75.8,71.8,94,83,62,30.02,29.92,13,0,13,0.13
2012-8-4,90.9,82.9,75.7,79.0,76.4,74.5,98,82,65,30.06,29.94,17,1,17,0.00
2012-8-5,92.1,84.7,75.6,80.1,76.9,72.5,96,78,64,30.09,30.01,12,1,12,0.74
2012-8-6,88.7,79.8,73.6,79.3,75.9,72.1,97,88,71,30.08,29.99,16,1,16,1.23
2012-8-7,90.9,83.4,73.4,79.7,76.6,71.2,98,81,66,30.06,29.96,11,1,12,1.29
2012-8-8,92.1,85.1,79.3,79.7,76.9,74.3,89,77,64,30.05,29.98,10,0,10,0.00
2012-8-9,92.3,85.5,81.0,79.7,77.1,74.1,85,76,64,30.04,29.93,10,1,10,0.00
2012-8-10,86.7,80.8,76.3,78.1,74.8,71.6,93,82,71,30.01,29.93,13,1,13,0.12
2012-8-11,90.9,80.2,72.9,78.1,74.4,70.0,96,83,65,30.04,29.94,16,1,24,0.06
2012-8-12,91.0,79.5,74.1,78.6,75.3,72.9,99,88,60,30.06,29.99,14,1,14,0.36
2012-8-13,92.1,82.5,74.7,80.8,77.0,74.1,99,85,65,30.08,29.99,8,0,8,0.01
2012-8-14,91.2,83.3,75.9,79.5,76.5,74.3,99,81,62,30.06,29.96,10,1,10,0.09
2012-8-15,92.3,84.7,77.5,79.3,77.0,74.5,96,79,58,30.05,29.98,10,1,13,0.00
2012-8-16,92.3,83.9,76.6,79.9,77.1,74.7,98,81,59,30.09,30.00,9,1,9,0.00
2012-8-17,93.2,81.0,71.4,78.1,74.6,68.7,98,83,52,30.06,29.93,13,1,13,1.35
2012-8-18,94.5,78.7,72.1,78.3,74.2,68.4,99,88,45,30.01,29.92,12,1,12,2.29
2012-8-19,90.3,82.0,75.9,78.6,76.6,73.0,99,85,66,30.01,29.92,15,2,15,0.09
2012-8-20,90.1,82.5,76.1,79.5,76.0,70.9,98,82,61,30.03,29.92,17,2,17,0.05
2012-8-21,91.0,82.0,75.6,78.1,74.4,70.2,95,79,57,30.09,29.99,14,1,14,0.00
2012-8-22,91.2,80.4,73.6,79.9,73.7,68.5,95,81,65,30.10,30.02,10,1,11,0.00
2012-8-23,91.4,82.8,73.9,78.8,75.2,71.2,97,79,61,30.09,30.01,10,1,10,0.00
2012-8-24,89.4,81.3,72.3,77.9,74.3,66.0,97,80,65,30.05,29.92,13,1,15,1.00
2012-8-25,84.9,78.4,69.6,79.2,74.4,66.9,98,88,77,29.98,29.88,14,2,15,1.20
2012-8-26,83.8,78.9,74.7,78.8,76.2,72.1,98,92,78,29.90,29.72,30,4,30,2.93
2012-8-27,85.5,80.6,74.7,80.1,77.3,73.0,98,90,75,29.96,29.74,26,7,28,5.66
2012-8-28,88.7,82.8,76.6,80.6,78.0,73.9,95,86,75,30.02,29.93,17,3,21,0.08
2012-8-29,88.9,83.5,80.1,78.8,77.0,75.9,89,81,70,30.01,29.92,14,3,15,0.00
2012-8-30,90.0,83.3,76.5,78.8,76.6,74.5,96,81,68,30.11,29.97,10,1,10,0.00
2012-8-31,90.1,82.9,77.4,78.8,76.6,74.8,95,82,65,30.16,30.06,7,0,8,0.00
2012-9-1,90.3,82.9,76.6,79.5,76.5,74.1,98,82,68,30.12,30.03,12,1,13,0.02
2012-9-2,88.9,82.5,76.3,75.2,72.4,69.1,85,72,58,30.06,29.98,10,1,10,0.00
2012-9-3,89.1,80.6,72.1,76.6,73.1,70.5,98,79,61,30.06,29.97,10,1,11,0.00
2012-9-4,88.2,79.3,72.3,77.4,72.9,65.7,97,81,59,30.06,29.94,12,1,13,0.23
2012-9-5,88.0,77.9,72.0,76.8,72.9,68.5,97,86,64,30.02,29.92,19,1,19,0.17
2012-9-6,88.5,77.2,70.9,78.8,73.4,69.4,99,89,63,30.04,29.97,15,1,15,0.32
2012-9-7,89.1,79.0,70.7,77.4,73.3,68.7,99,84,64,30.01,29.92,13,1,13,0.01
2012-9-8,91.8,82.2,74.3,77.2,74.2,68.5,95,78,49,29.99,29.89,13,2,13,0.00
2012-9-9,95.4,84.8,76.6,76.3,73.6,68.7,91,71,44,29.98,29.88,16,2,16,0.00
2012-9-10,89.8,81.2,75.9,78.8,75.8,72.7,95,84,65,30.01,29.93,18,1,18,0.31
2012-9-11,90.5,81.0,74.7,79.2,75.6,73.2,99,84,68,30.07,29.98,11,1,11,0.01
2012-9-12,89.2,83.1,77.0,77.4,74.2,70.2,92,75,65,30.07,29.99,15,2,15,0.04
2012-9-13,84.7,81.3,75.2,76.1,74.1,72.1,96,79,70,30.07,29.98,12,2,13,0.84
2012-9-14,89.1,81.4,74.1,78.6,74.7,72.1,96,81,63,30.03,29.96,10,1,10,0.00
2012-9-15,88.3,80.4,73.8,77.7,74.4,71.2,98,82,68,30.05,29.98,8,1,10,0.26
2012-9-16,85.5,81.0,78.4,76.8,73.9,71.8,87,79,66,30.05,29.96,11,0,11,0.00
2012-9-17,87.3,81.1,75.0,78.8,74.7,71.1,97,81,69,30.03,29.92,13,1,13,0.12
2012-9-18,92.7,81.7,74.8,79.2,75.3,72.7,97,82,59,29.99,29.90,13,2,14,0.22
2012-9-24,84.2,84.2,84.2,75.4,75.4,74.8,75,75,75,30.00,30.00,7,3,10,0.00
2012-10-4,90.3,85.2,80.4,80.1,78.1,76.1,89,80,69,30.15,30.05,8,1,8,0.00
2012-10-5,89.1,83.5,80.2,79.0,76.7,74.5,90,81,66,30.09,29.94,8,0,8,0.00
2012-10-6,89.1,81.5,74.1,77.9,75.5,72.1,96,83,63,29.99,29.85,8,0,9,0.17
2012-10-7,85.3,77.7,72.1,78.6,74.7,70.7,98,91,74,29.98,29.87,10,0,10,0.27
2012-10-8,88.3,81.1,76.3,79.7,76.0,73.0,96,85,71,30.01,29.91,7,0,7,0.01
2012-10-9,88.7,81.3,75.0,78.3,75.9,73.9,99,85,64,30.02,29.95,10,1,10,0.00
2012-10-10,87.1,80.3,74.8,79.0,74.6,70.5,98,83,70,30.06,29.97,11,1,11,0.03
2012-10-11,86.7,79.8,71.8,71.1,69.0,66.4,89,70,55,30.12,30.03,14,2,14,0.00
2012-10-12,85.3,79.8,77.2,68.9,66.4,64.6,70,64,52,30.12,30.04,16,3,16,0.00
2012-10-13,85.3,79.7,73.8,73.2,68.6,64.4,94,69,55,30.11,30.02,15,3,16,0.17
2012-10-14,85.5,81.1,79.0,76.8,73.6,67.6,87,78,68,30.06,29.94,17,3,17,0.00
2012-10-15,88.5,82.0,75.7,75.4,73.9,72.0,89,77,62,29.94,29.78,10,1,10,0.00
2012-10-16,87.8,79.1,71.8,75.4,71.9,68.9,97,80,56,29.85,29.76,10,1,11,0.00
2012-10-17,86.0,76.8,69.8,75.6,72.2,68.5,98,86,68,29.91,29.80,9,1,11,0.37
2012-10-18,86.5,79.8,72.1,78.6,75.1,70.5,97,86,73,29.88,29.80,12,1,13,0.62
2012-10-19,86.9,79.6,73.9,77.9,75.1,72.5,99,87,68,29.90,29.80,11,1,11,0.00
2012-10-20,86.4,78.1,72.1,75.6,72.7,69.8,97,84,66,29.93,29.84,11,1,12,0.00
2012-10-21,86.2,77.0,69.8,70.0,65.1,61.5,96,68,46,30.01,29.89,10,1,11,0.00
2012-10-22,85.3,79.3,75.0,70.2,66.0,61.5,72,64,53,30.02,29.95,14,2,14,0.00
2012-10-23,85.5,79.2,73.2,72.9,68.3,62.6,93,70,60,29.99,29.92,13,2,14,0.01
2012-10-24,85.5,79.3,72.0,73.8,71.8,68.9,96,79,61,29.96,29.85,14,3,15,0.54
2012-10-25,81.0,78.2,72.7,74.3,71.9,66.7,92,81,73,29.85,29.64,22,4,25,0.21
2012-10-26,79.5,74.6,70.2,72.9,69.1,66.0,96,83,67,29.65,29.45,23,4,27,0.37
2012-10-27,82.6,73.6,67.3,68.2,64.6,62.2,92,74,53,29.68,29.46,23,4,24,0.02
2012-10-28,82.8,72.1,66.2,66.4,63.1,55.9,95,75,53,29.78,29.66,15,3,17,0.00
2012-10-29,71.8,62.7,57.4,56.8,50.9,43.7,80,66,42,29.86,29.74,17,2,18,0.00
2012-10-30,73.2,61.7,52.3,50.2,45.8,36.9,83,58,37,29.95,29.82,19,2,19,0.00
2012-10-31,75.6,67.0,56.1,54.3,50.8,43.3,91,59,40,30.07,29.97,11,1,12,0.00
2012-11-1,80.2,66.6,52.2,63.1,58.2,50.9,99,77,50,30.07,29.96,13,1,13,0.00
2012-11-2,83.5,70.0,57.0,64.4,57.7,46.9,97,70,30,30.09,30.00,9,0,9,0.00
2012-11-3,83.5,67.2,55.4,63.1,57.6,50.2,97,75,34,30.14,30.05,8,0,9,0.00
2012-11-4,81.9,69.6,59.0,66.9,62.5,58.1,99,80,53,30.12,30.01,8,0,8,0.00
2012-11-5,81.0,70.5,64.0,65.3,61.9,54.7,94,77,44,30.02,29.93,9,0,9,0.00
2012-11-6,84.4,71.7,61.9,65.8,61.7,55.2,98,74,39,29.94,29.81,14,1,14,0.00
2012-11-7,72.1,65.9,57.4,64.2,56.1,47.7,95,72,53,29.99,29.83,16,1,16,0.00
2012-11-8,71.1,61.1,53.2,52.3,46.0,37.9,83,61,31,30.11,29.97,15,1,15,0.00
2012-11-9,76.6,66.6,56.8,58.3,53.3,51.3,85,64,45,30.20,30.09,13,2,13,0.00
2012-11-10,76.3,71.9,69.3,60.1,55.4,51.8,66,56,49,30.26,30.17,14,2,14,0.00
2012-11-11,81.3,75.8,72.1,65.7,60.7,54.3,72,60,44,30.24,30.17,16,3,16,0.00
2012-11-12,81.5,76.5,74.5,69.3,67.3,64.9,79,73,64,30.20,30.12,13,3,15,0.00
2012-11-13,82.0,76.3,72.5,67.8,66.0,64.2,78,71,58,30.15,30.05,9,1,10,0.00
2012-11-14,80.8,75.6,70.0,69.8,66.4,63.5,87,73,66,30.12,30.05,10,1,11,0.00
2012-11-15,81.3,72.7,63.7,67.6,64.5,61.7,97,77,54,30.10,30.03,8,1,8,0.00
2012-11-16,79.9,69.6,64.4,68.9,65.2,62.6,96,87,65,30.11,30.02,9,1,11,0.18
2012-11-17,79.0,71.7,64.9,67.5,65.5,62.6,98,82,64,30.10,30.02,11,1,11,0.38
2012-11-18,80.1,72.1,66.4,68.9,65.9,62.6,93,81,64,30.12,30.02,15,2,15,0.00
2012-11-19,75.6,65.4,58.6,62.8,59.3,56.3,93,81,60,30.12,30.02,10,1,11,0.00
2012-11-20,77.2,65.6,59.2,66.2,61.0,57.4,95,86,68,30.04,29.91,11,1,12,0.00
2012-11-21,79.9,66.5,58.8,64.0,58.2,53.1,95,76,48,30.03,29.92,12,1,12,0.00
2012-11-22,59.2,58.2,56.7,54.0,50.7,49.1,83,76,71,30.03,29.99,7,1,8,0.00
2012-11-24,76.8,65.1,49.6,56.3,52.8,46.4,93,67,39,30.12,30.00,10,1,10,0.00
2012-11-25,79.7,64.0,53.6,60.1,55.9,52.0,94,77,43,30.13,30.05,6,0,6,0.00
2012-11-26,80.1,70.9,60.6,65.3,61.6,58.8,96,74,54,30.20,30.11,9,0,9,0.00
2012-11-27,80.1,74.2,69.1,66.6,64.0,61.5,87,71,57,30.20,30.09,10,1,10,0.00
2012-11-28,80.4,70.0,63.9,66.4,64.3,61.2,97,83,54,30.19,30.10,11,1,13,0.02
2012-11-29,78.1,71.9,62.4,65.5,63.2,59.5,95,75,62,30.22,30.14,15,2,15,0.03
2012-11-30,75.6,72.7,71.2,63.5,61.9,59.4,73,69,63,30.23,30.13,15,3,15,0.00
2012-12-1,78.4,74.0,71.6,65.3,63.1,61.3,76,69,59,30.19,30.12,15,2,15,0.00
2012-12-2,79.5,74.4,71.6,67.1,64.8,63.0,78,72,63,30.24,30.15,15,2,15,0.00
2012-12-3,79.0,73.6,71.4,65.5,60.6,49.6,77,64,46,30.25,30.16,14,2,14,0.00
2012-12-4,78.4,73.4,70.9,63.5,60.2,50.2,76,63,47,30.24,30.15,11,2,13,0.00
2012-12-5,79.9,73.2,68.2,66.2,63.4,59.2,90,72,55,30.15,30.02,8,1,9,0.09
2012-12-6,80.2,73.7,68.2,68.9,67.1,64.8,96,80,63,30.02,29.91,8,0,10,0.07
2012-12-7,80.2,74.0,67.3,69.8,67.8,65.5,98,81,67,29.99,29.91,13,1,13,0.08
2012-12-8,82.0,76.3,71.4,72.7,70.2,66.9,89,82,71,30.04,29.96,11,1,11,0.00
2012-12-9,83.7,77.1,69.3,75.2,72.8,68.0,97,87,72,30.09,29.99,10,1,11,0.00
2012-12-10,82.8,77.0,70.2,75.9,73.5,69.3,99,89,77,30.03,29.91,16,2,16,0.00
2012-12-11,88.3,78.1,71.2,77.4,73.6,68.7,94,86,65,30.06,29.91,14,2,15,0.00
2012-12-12,81.9,76.5,71.8,73.2,72.0,70.5,98,86,71,30.09,30.01,20,2,20,0.01
2012-12-13,78.3,71.5,65.5,73.4,68.3,63.3,97,90,79,30.10,30.01,13,1,13,0.01
2012-12-14,79.5,70.3,63.0,67.8,64.0,58.1,99,82,51,30.14,30.05,13,1,14,0.27
2012-12-15,79.3,74.1,71.1,67.3,65.1,63.0,82,74,63,30.12,30.02,11,1,11,0.01
2012-12-16,79.5,74.2,71.2,70.7,67.8,64.2,89,81,67,30.05,29.96,10,1,10,0.00
2012-12-17,83.8,73.1,62.8,68.9,66.0,61.7,99,80,55,29.98,29.89,13,1,13,0.00
2012-12-18,84.4,73.2,66.7,70.5,67.2,65.3,99,83,57,30.01,29.91,13,1,13,0.01
2012-12-19,81.0,70.6,58.5,66.6,62.4,55.8,95,77,53,30.10,30.01,7,0,7,0.00
2012-12-20,80.4,74.4,69.3,67.6,65.4,61.7,87,74,57,30.10,29.96,14,2,16,0.00
2012-12-21,71.2,64.1,50.7,68.5,50.7,35.4,92,65,32,30.17,29.94,17,2,17,0.00
2012-12-22,66.9,53.1,43.3,40.5,31.5,20.8,73,47,20,30.25,30.16,9,1,9,0.00
2012-12-23,72.9,59.4,46.8,56.8,46.2,33.6,84,62,49,30.24,30.14,7,0,8,0.00
2012-12-24,77.2,65.6,55.6,60.1,56.3,51.6,91,73,52,30.14,30.00,14,1,14,0.00
2012-12-25,78.3,68.8,57.4,65.7,61.0,55.8,97,78,57,30.05,29.94,15,2,15,0.00
2012-12-26,83.7,74.5,62.6,70.7,67.1,57.0,96,79,60,29.98,29.83,20,3,23,0.02
2012-12-27,73.6,59.8,51.4,57.0,49.9,42.3,92,73,34,30.08,29.98,10,0,12,0.01
2012-12-28,75.0,66.8,51.1,70.7,62.3,48.9,96,86,71,30.09,29.97,9,1,11,0.00
2012-12-29,81.7,75.1,60.4,72.9,69.4,53.1,93,83,64,30.10,29.92,17,3,17,0.00
2012-12-30,66.7,60.1,49.1,56.3,51.5,44.6,86,74,65,30.29,30.10,14,2,15,0.00
2012-12-31,74.5,69.5,65.3,61.0,58.1,54.3,72,67,61,30.31,30.19,11,2,14,0.00
2013-1-1,77.4,72.0,61.9,63.9,60.9,57.9,91,69,59,30.21,30.06,16,2,16,0.00